Debrecen, Hungary

11:04 AM CET on February 25, 2018 (GMT +0100)
Debrecen

Weather History for LHDC - June, 2013

Change the Weather History Date:

Friday, June 28, 2013

  Actual Average Record
Temperature  
Mean Temperature 64 °F -  
Max Temperature 73 °F 80 °F - ()
Min Temperature 54 °F 58 °F - ()
Degree Days  
Heating Degree Days 2    
Growing Degree Days 14 (Base 50)    
Moisture  
Dew Point 54 °F    
Average Humidity 65    
Maximum Humidity 94    
Minimum Humidity 44    
Precipitation  
Precipitation 0.00 in 0.09 in - ()
Sea Level Pressure  
Sea Level Pressure 30.04 in    
Wind  
Wind Speed 3 mph ()    
Max Wind Speed 7 mph    
Max Gust Speed -    
Visibility 6.4 miles    
Events      
T = Trace of Precipitation, MM = Missing Value Source: Averaged Metar Reports

Daily Weather History Graph

Daily Weather History Graph

Search for Another Location

Airport or City:

Trip Planner

Search our weather history database for the weather conditions in past years. The results will help you decide how hot, cold, wet, or windy it might be!

Date:

Astronomy

Jun. 28, 2013 Rise Set
Actual Time 4:38 AM CEST 8:34 PM CEST
Civil Twilight 3:58 AM CEST 9:15 PM CEST
Nautical Twilight 3:02 AM CEST 10:10 PM CEST
Astronomical Twilight 1:35 AM CEST 11:36 PM CEST
Moon 11:25 PM CEST (6/28) 10:52 AM CEST (6/28)
Length of Visible Light 17h 16m
Length of Day
15h 55m
Waning Gibbous, 69% of the Moon is Illuminated
Jun 28
Waning Gibbous
Jun 30
Last Quarter
Jul 8
New
Jul 16
First Quarter
Jul 22
Full

Hourly Weather History & Observations

Time (CEST) Temp. Dew Point Humidity Pressure Visibility Wind Dir Wind Speed Gust Speed Precip Events Conditions
2:00 AM 57 °F 54 °F 86% 30.09 in - North 4.5 mph - -  
4:45 AM 55.4 °F 53.6 °F 94% 30.06 in 3.7 mi SW 2.3 mph - N/A   Mostly Cloudy
5:15 AM 55.4 °F 53.6 °F 94% 30.06 in 3.7 mi Calm Calm - N/A   Mostly Cloudy
5:45 AM 55.4 °F 53.6 °F 94% 30.06 in 3.7 mi WSW 2.3 mph - N/A   Scattered Clouds
6:15 AM 55.4 °F 53.6 °F 94% 30.06 in 3.7 mi NW 1.2 mph - N/A   Scattered Clouds
6:45 AM 57.2 °F 55.4 °F 94% 30.06 in 3.7 mi WNW 3.5 mph - N/A   Partly Cloudy
7:00 AM - - N/A% - 6.2 mi Variable 1.2 mph - N/A   Mostly Cloudy
7:15 AM 59.0 °F 55.4 °F 88% 30.06 in 3.7 mi NW 4.6 mph - N/A   Scattered Clouds
7:45 AM 60.8 °F 55.4 °F 82% 30.06 in 4.3 mi North 4.6 mph - N/A   Scattered Clouds
8:00 AM 60 °F 55 °F 78% 30.06 in 4 mi North 4.5 mph - -   Partly Cloudy
8:15 AM 60.8 °F 53.6 °F 77% 30.06 in 6.2 mi NNE 4.6 mph - N/A   Mostly Cloudy
8:45 AM 60.8 °F 53.6 °F 77% 30.06 in 6.2 mi North 3.5 mph - N/A   Scattered Clouds
9:15 AM 62.6 °F 53.6 °F 72% 30.06 in 6.2 mi North 2.3 mph - N/A   Scattered Clouds
9:45 AM 64.4 °F 55.4 °F 73% 30.06 in 6.2 mi SW 1.2 mph - N/A   Scattered Clouds
10:00 AM - - N/A% - 6.2 mi NNW 5.8 mph - N/A   Mostly Cloudy
10:15 AM 64.4 °F 53.6 °F 68% 30.06 in 6.2 mi South 3.5 mph - N/A   Scattered Clouds
10:45 AM 66.2 °F 53.6 °F 64% 30.06 in 6.2 mi WNW 4.6 mph - N/A   Scattered Clouds
11:15 AM 66.2 °F 53.6 °F 64% 30.06 in 6.2 mi NNW 3.5 mph - N/A   Scattered Clouds
11:45 AM 68.0 °F 51.8 °F 56% 30.06 in 6.2 mi WNW 4.6 mph - N/A   Scattered Clouds
12:15 PM 69.8 °F 51.8 °F 53% 30.06 in 6.2 mi NW 5.8 mph - N/A   Scattered Clouds
12:45 PM 68.0 °F 51.8 °F 56% 30.06 in 6.2 mi WNW 5.8 mph - N/A   Scattered Clouds
1:00 PM - - N/A% - 6.2 mi WNW 5.8 mph - N/A   Mostly Cloudy
1:15 PM 69.8 °F 53.6 °F 56% 30.06 in 6.2 mi WSW 4.6 mph - N/A   Mostly Cloudy
1:45 PM 69.8 °F 53.6 °F 56% 30.06 in 6.2 mi WNW 5.8 mph - N/A   Mostly Cloudy
2:00 PM 70 °F 53 °F 44% 30.04 in 19 mi WNW 4.5 mph - -   Partly Cloudy
2:15 PM 71.6 °F 53.6 °F 53% 30.04 in 6.2 mi North 3.5 mph - N/A   Mostly Cloudy
2:45 PM 71.6 °F 51.8 °F 50% 30.04 in 6.2 mi WNW 4.6 mph - N/A   Mostly Cloudy
3:15 PM 71.6 °F 51.8 °F 50% 30.04 in 6.2 mi West 6.9 mph - N/A   Scattered Clouds
3:45 PM 73.4 °F 53.6 °F 50% 30.04 in 6.2 mi West 5.8 mph - N/A   Scattered Clouds
4:00 PM - - N/A% - 6.2 mi WNW 5.8 mph - N/A   Mostly Cloudy
4:15 PM 73.4 °F 53.6 °F 50% 30.01 in 6.2 mi North 5.8 mph - N/A   Mostly Cloudy
4:45 PM 73.4 °F 53.6 °F 50% 30.01 in 6.2 mi NNW 3.5 mph - N/A   Scattered Clouds
5:15 PM 71.6 °F 53.6 °F 53% 30.01 in 6.2 mi SSE 2.3 mph - N/A   Scattered Clouds
5:45 PM 71.6 °F 51.8 °F 50% 30.01 in 6.2 mi WSW 2.3 mph - N/A   Mostly Cloudy
6:15 PM 71.6 °F 53.6 °F 53% 30.01 in - NW 2.3 mph - N/A   Clear
6:45 PM 71.6 °F 51.8 °F 50% 30.01 in - Calm Calm - N/A   Clear
7:15 PM 71.6 °F 55.4 °F 57% 30.01 in - SW 3.5 mph - N/A   Clear
7:45 PM 69.8 °F 55.4 °F 60% 30.01 in - WSW 3.5 mph - N/A   Clear
8:00 PM 70 °F 56 °F 51% 29.99 in 19 mi WSW 4.5 mph - -   Partly Cloudy
8:15 PM 69.8 °F 53.6 °F 56% 30.01 in - West 3.5 mph - N/A   Clear
8:45 PM 68.0 °F 53.6 °F 60% 30.01 in - West 4.6 mph - N/A   Clear
9:00 PM - - N/A% - - North - - N/A   Unknown